Content
SEND FEEDBACK

Daily
Averages
Monthly
Summary
Brazil

TERESINA, PIAUI


Home > South America > Brazil > Piaui
Elevation: 328 feet     Latitude: 05 03S     Longitude: 042 48W

WEATHER
 
SELECT A DAY
Number of Records: 163,885;   Date Range: 6/30/96 - 8/10/14
 
SHARE

PRINT THIS DATA

[ ← Previous Day ]
WEATHER ALMANAC - MARCH 6, 2014
[ Next Day → ]
[ °C ]   °F
Weather ElementAverageHighLow
Temperature81.1 °F90 °F (3:00 pm)75.2 °F (4:00 am)
Dewpoint75.2 °F78.8 °F (12:00 pm)69 °F (3:00 pm)
Humidity83.5 %100 % (1:00 am)41 % (3:00 pm)
Barometer29.85 in29.90 in (9:00 am)29.80 in (4:00 am)
Wind Speed3.3 mph6.9 mph (11:00 am)
Weather ElementAverage
Visibility7.2 mi
Wind DirectionSSE (148.2 °)

Weather ElementTotal
Precipitation---
Cooling Degree Days17.6 (Base 65)
Growing Degree Days32.6 (Base 50)
Averaged from 28 records on March 6, 2014
WEATHER CONDITIONS BREAKOUT
WIND DIRECTION BREAKOUT
WEATHER BY HOUR - MARCH 6, 2014
[ °C ]   °F
Local TimeTemperatureDewpointHumidityBarometerVisibilityWind DirectionWind SpeedGust SpeedPrecipitationEventsConditions
1:00 AM77.0 °F77.0 °F100 %29.86 inCalmClear
2:00 AM77.0 °F77.0 °F100 %29.83 in6.2 miCalmMostly Cloudy
3:00 AM77.0 °F76.0 °F97 %29.82 in12.0 miNW (310°)3.5 mphPartly Cloudy
3:00 AM77.0 °F77.0 °F100 %29.83 in6.2 miNW (310°)3.5 mphPartly Cloudy
4:00 AM75.2 °F75.2 °F100 %29.80 in6.2 miNorth (10°)3.5 mphPartly Cloudy
5:00 AM75.2 °F75.2 °F100 %29.83 inCalmClear
6:00 AM75.2 °F75.2 °F100 %29.83 in6.2 miCalmPartly Cloudy
6:35 AM75.2 °F73.4 °F94 %29.86 in6.2 miCalmMostly Cloudy
7:00 AM75.2 °F75.2 °F100 %29.89 in6.2 miCalmScattered Clouds
8:00 AM77.0 °F75.2 °F94 %29.89 in6.2 miNNE (20°)2.3 mphMostly Cloudy
9:00 AM80.0 °F77.0 °F88 %29.90 in12.0 miNW (310°)2.3 mphMostly Cloudy
9:00 AM80.6 °F77.0 °F89 %29.89 in6.2 miNW (310°)2.3 mphMostly Cloudy
10:00 AM82.4 °F77.0 °F84 %29.89 in6.2 miNNE (20°)4.6 mphOvercast
11:00 AM82.4 °F77.0 °F84 %29.89 in6.2 miNorth (360°)6.9 mphMostly Cloudy
12:00 PM82.4 °F78.8 °F89 %29.86 in6.2 miNW (310°)4.6 mphScattered Clouds
1:00 PM89.6 °F75.2 °F62 %29.83 in6.2 miENE (70°)5.8 mphScattered Clouds
2:00 PM89.6 °F69.8 °F52 %29.83 in6.2 miNE (50°)6.9 mphMostly Cloudy
3:00 PM90.0 °F69.0 °F41 %29.81 in12.0 miSE (130°)5.8 mphPartly Cloudy
3:00 PM89.6 °F69.8 °F52 %29.80 in6.2 miSE (130°)5.8 mphMostly Cloudy
4:00 PM89.6 °F73.4 °F59 %29.80 in6.2 miSE (130°)2.3 mphMostly Cloudy
5:00 PM84.2 °F75.2 °F74 %29.80 in6.2 miSouth (180°)6.9 mphScattered Clouds
6:00 PM82.4 °F75.2 °F79 %29.80 in6.2 miSSW (210°)3.5 mphScattered Clouds
7:00 PM82.4 °F77.0 °F84 %29.83 in6.2 miSSW (200°)4.6 mphScattered Clouds
8:00 PM82.4 °F75.2 °F79 %29.83 inSSW (210°)2.3 mphClear
9:00 PM81.0 °F76.0 °F80 %29.88 in12.0 miSouth (170°)3.5 mphScattered Clouds
9:00 PM80.6 °F75.2 °F84 %29.89 in6.2 miSouth (170°)3.5 mphMostly Cloudy
10:00 PM80.6 °F75.2 °F84 %29.86 inSSW (210°)3.5 mphClear
11:00 PM78.8 °F75.2 °F89 %29.89 inNNW (330°)4.6 mphClear
Hourly data recorded from SBTE, located miles away from Teresina, Piaui







STORIES FROM OUR PARTNERS